Minot AFB, ND

11:43 PM CST on December 11, 2017 (GMT -0600)
Minot Air Force Base

Weather History for KMIB - December, 2013

Change the Weather History Date:

Friday, December 6, 2013

  Actual Average Record
Temperature  
Mean Temperature -12 °F -  
Max Temperature -9 °F 27 °F 53 °F (2015)
Min Temperature -16 °F 11 °F -16 °F (2006)
Degree Days  
Heating Degree Days 78    
Moisture  
Dew Point -20 °F    
Average Humidity 72    
Maximum Humidity 77    
Minimum Humidity 64    
Precipitation  
Precipitation 0.00 in - - ()
Snow  
Snow 0.00 in - - ()
Snow Depth 5.00 in    
Sea Level Pressure  
Sea Level Pressure 30.52 in    
Wind  
Wind Speed 19 mph (WNW)    
Max Wind Speed 23 mph    
Max Gust Speed 29 mph    
Visibility 10 miles    
Events Snow    
Averages and records for this station are not official NWS values.
T = Trace of Precipitation, MM = Missing Value Source: NWS Daily Summary

Daily Weather History Graph

Daily Weather History Graph

Search for Another Location

Airport or City:

Trip Planner

Search our weather history database for the weather conditions in past years. The results will help you decide how hot, cold, wet, or windy it might be!

Date:

Astronomy

Dec. 06, 2013 Rise Set
Actual Time 8:22 AM CST 4:51 PM CST
Civil Twilight 7:45 AM CST 5:27 PM CST
Nautical Twilight 7:06 AM CST 6:06 PM CST
Astronomical Twilight 6:28 AM CST 6:44 PM CST
Moon 11:17 AM CST (12/6) 9:38 PM CST (12/6)
Length of Visible Light 9h 41m
Length of Day
8h 28m
Waxing Crescent, 19% of the Moon is Illuminated
Dec 6
Waxing Crescent
Dec 9
First Quarter
Dec 17
Full
Dec 25
Last Quarter
Jan 1
New

Hourly Weather History & Observations

Time (CST) Temp. Windchill Dew Point Humidity Pressure Visibility Wind Dir Wind Speed Gust Speed Precip Events Conditions
12:08 AM -11.2 °F -36.4 °F -16.6 °F 77% 30.32 in 10.0 mi WNW 19.6 mph - N/A   Scattered Clouds
12:33 AM -11.2 °F -37.0 °F -16.6 °F 77% 30.32 in 10.0 mi WNW 20.7 mph - N/A   Mostly Cloudy
12:58 AM -11.2 °F -37.0 °F -16.6 °F 77% 30.50 in 9.0 mi WNW 20.7 mph 26.5 mph N/A   Overcast
1:03 AM -11.2 °F -38.2 °F -16.6 °F 77% 30.32 in 10.0 mi WNW 23.0 mph 26.5 mph N/A   Overcast
1:08 AM -11.2 °F -38.2 °F -16.6 °F 77% 30.33 in 9.0 mi WNW 23.0 mph - N/A   Overcast
1:33 AM -11.2 °F -37.6 °F -16.6 °F 77% 30.32 in 7.0 mi WNW 21.9 mph - N/A   Overcast
1:53 AM -11.2 °F -37.6 °F -16.6 °F 77% 30.33 in 8.0 mi WNW 21.9 mph - N/A   Light Freezing Rain
1:58 AM -11.6 °F -38.1 °F -17.5 °F 75% 30.51 in 9.0 mi WNW 21.9 mph - 0.00 in   Overcast
2:08 AM -11.2 °F -36.4 °F -18.4 °F 70% 30.33 in 10.0 mi WNW 19.6 mph - N/A   Mostly Cloudy
2:58 AM -12.5 °F -39.3 °F -18.6 °F 74% 30.52 in 10.0 mi WNW 21.9 mph 28.8 mph N/A   Overcast
3:08 AM -13.0 °F -40.0 °F -18.4 °F 77% 30.34 in 10.0 mi WNW 21.9 mph - N/A   Overcast
3:58 AM -12.8 °F -38.6 °F -18.9 °F 74% 30.53 in 10.0 mi WNW 19.6 mph - N/A   Overcast
4:48 AM -13.0 °F -38.8 °F -20.2 °F 70% 30.36 in 10.0 mi WNW 19.6 mph - N/A   Mostly Cloudy
4:58 AM -13.4 °F -39.3 °F -19.5 °F 74% 30.56 in 10.0 mi WNW 19.6 mph - N/A   Mostly Cloudy
5:23 AM -13.0 °F -36.0 °F -20.2 °F 70% 30.38 in 10.0 mi WNW 15.0 mph - N/A   Overcast
5:43 AM -13.0 °F -32.4 °F -20.2 °F 70% 30.39 in 10.0 mi WNW 10.4 mph - N/A   Overcast
5:58 AM -14.1 °F -38.2 °F -20.0 °F 75% 30.58 in 10.0 mi WNW 16.1 mph - N/A   Overcast
6:48 AM -14.8 °F -40.5 °F -20.2 °F 77% 30.39 in 10.0 mi WNW 18.4 mph - N/A   Overcast
6:58 AM -14.8 °F -41.2 °F -20.2 °F 77% 30.58 in 10.0 mi WNW 19.6 mph - N/A   Overcast
7:23 AM -14.8 °F -39.1 °F -20.2 °F 77% 30.40 in 10.0 mi WNW 16.1 mph - N/A   Overcast
7:43 AM -14.8 °F -39.1 °F -20.2 °F 77% 30.41 in 10.0 mi WNW 16.1 mph - N/A   Overcast
7:58 AM -14.6 °F -39.6 °F -20.6 °F 75% 30.60 in 10.0 mi WNW 17.3 mph - N/A   Partly Cloudy
8:58 AM -16.4 °F -35.5 °F -22.5 °F 74% 30.63 in 10.0 mi WNW 9.2 mph - N/A   Partly Cloudy
9:58 AM -14.8 °F -38.3 °F -22.0 °F 70% 30.65 in 10.0 mi West 15.0 mph - N/A   Partly Cloudy
10:58 AM -13.4 °F -36.5 °F -20.7 °F 70% 30.66 in 10.0 mi West 15.0 mph - N/A   Partly Cloudy
11:58 AM -11.7 °F -36.5 °F -19.3 °F 69% 30.66 in 10.0 mi WNW 18.4 mph - N/A   Partly Cloudy
12:58 PM -10.1 °F -34.4 °F -18.2 °F 67% 30.65 in 10.0 mi West 18.4 mph - N/A   Partly Cloudy
1:58 PM -9.4 °F -32.8 °F -17.5 °F 68% 30.64 in 10.0 mi WNW 17.3 mph - N/A   Partly Cloudy
2:58 PM -9.4 °F -32.1 °F -17.5 °F 68% 30.65 in 10.0 mi WNW 16.1 mph - N/A   Partly Cloudy
3:58 PM -10.5 °F -31.1 °F -17.9 °F 70% 30.66 in 10.0 mi WNW 12.7 mph - N/A   Clear
4:58 PM -11.9 °F -31.0 °F -19.5 °F 69% 30.66 in 10.0 mi WNW 10.4 mph - N/A   Scattered Clouds
5:58 PM -13.9 °F -32.4 °F -20.9 °F 71% 30.68 in 10.0 mi WNW 9.2 mph - N/A   Clear
6:58 PM -16.2 °F -32.5 °F -22.5 °F 73% 30.69 in 10.0 mi WNW 6.9 mph - N/A   Clear
7:58 PM -15.0 °F -39.3 °F -22.0 °F 71% 30.70 in 10.0 mi WNW 16.1 mph - N/A   Clear
8:58 PM -15.7 °F -41.0 °F -23.3 °F 69% 30.70 in 10.0 mi WNW 17.3 mph - N/A   Clear
9:58 PM -14.4 °F -37.9 °F -22.2 °F 68% 30.70 in 10.0 mi WNW 15.0 mph - N/A   Overcast
10:13 PM -14.8 °F -39.8 °F -22.0 °F 70% 30.50 in 10.0 mi WNW 17.3 mph - N/A Snow Light Snow
10:18 PM -14.8 °F -41.8 °F -22.0 °F 70% 30.50 in 10.0 mi WNW 20.7 mph - N/A Snow Light Snow
10:23 PM -14.8 °F -40.5 °F -22.0 °F 70% 30.49 in 8.0 mi WNW 18.4 mph - N/A Snow Light Snow
10:33 PM -13.0 °F -38.8 °F -22.0 °F 64% 30.50 in 10.0 mi WNW 19.6 mph - N/A Snow Light Snow
10:38 PM -13.0 °F -38.8 °F -22.0 °F 64% 30.49 in 9.0 mi WNW 19.6 mph - N/A Snow Light Snow
10:43 PM -13.0 °F -38.8 °F -22.0 °F 64% 30.50 in 10.0 mi WNW 19.6 mph - N/A Snow Light Snow
10:48 PM -13.0 °F -36.8 °F -22.0 °F 64% 30.50 in 10.0 mi WNW 16.1 mph - N/A Snow Light Snow
10:58 PM -13.5 °F -38.9 °F -20.6 °F 71% 30.70 in 10.0 mi WNW 18.4 mph - 0.00 in Snow Light Snow
11:03 PM -13.0 °F -36.8 °F -20.2 °F 70% 30.50 in 9.0 mi WNW 16.1 mph - N/A Snow Light Snow
11:08 PM -13.0 °F -38.8 °F -20.2 °F 70% 30.49 in 9.0 mi WNW 19.6 mph - N/A Snow Light Snow
11:23 PM -13.0 °F -36.8 °F -20.2 °F 70% 30.50 in 9.0 mi WNW 16.1 mph - N/A   Overcast
11:38 PM -13.0 °F -36.8 °F -20.2 °F 70% 30.50 in 8.0 mi WNW 16.1 mph - N/A   Overcast
11:43 PM -13.0 °F -38.2 °F -20.2 °F 70% 30.50 in 7.0 mi WNW 18.4 mph - N/A   Overcast
11:48 PM -13.0 °F -37.5 °F -20.2 °F 70% 30.50 in 5.0 mi WNW 17.3 mph - N/A Snow Blowing Snow
11:58 PM -13.0 °F -38.2 °F -19.7 °F 72% 30.70 in 6.0 mi NW 18.4 mph - 0.00 in Snow Blowing Snow